GFSNW_sfc_30mbdewp_339.txt.gz
Dewpoint
40 39 40 42 43 38 31 21 14 18 32 17 13 11 7 7 8 11 10 12 10 9 14 13 12 10 11 16 19 19 23 19 16 17 20 31 29 19 16 15 11 12 14 22
39 39 41 42 43 42 32 22 22 23 27 10 12 10 8 10 11 12 15 17 18 19 20 18 13 9 10 12 21 22 24 18 15 20 24 28 25 22 19 19 19 18 19 22
40 39 41 42 42 40 37 26 13 27 17 15 12 11 11 12 15 17 21 23 24 23 18 15 11 10 8 19 23 28 24 20 19 15 22 28 28 28 28 23 17 17 28 32
39 39 40 41 41 38 30 28 15 16 10 13 12 14 14 14 19 21 27 24 26 25 19 14 12 11 12 14 20 18 21 18 22 22 26 25 28 28 28 29 32 27 30 30
39 38 40 41 41 37 27 21 22 24 13 14 12 15 14 16 24 22 27 26 27 25 22 18 15 16 16 17 21 19 23 20 24 26 27 20 20 24 26 25 26 29 30 29
38 38 39 40 41 38 30 29 29 23 15 14 15 17 18 18 26 24 24 27 29 26 26 29 25 22 23 27 26 25 25 24 22 23 28 20 15 21 25 25 27 28 24 30
37 37 38 39 40 41 35 32 31 23 15 16 17 19 20 21 23 22 24 24 25 27 30 27 21 24 23 29 30 30 26 25 25 23 20 9 21 26 27 26 27 28 30 31
37 37 38 39 39 41 37 38 36 27 18 19 19 21 22 22 25 24 24 25 27 28 29 22 22 21 25 24 27 31 31 27 22 19 17 21 18 23 24 23 24 29 29 32
37 37 38 39 40 41 36 38 40 36 23 21 21 21 23 23 25 24 23 27 28 27 24 21 18 16 20 19 18 21 20 20 21 15 10 9 19 26 28 32 16 29 30 31
37 37 38 39 40 40 39 34 37 37 24 23 22 22 23 25 26 25 24 27 28 28 23 19 19 19 24 17 18 19 18 17 15 13 16 17 25 27 22 14 19 30 31 31
36 36 37 38 39 40 39 35 34 35 32 22 23 24 25 26 27 27 29 25 27 28 24 21 22 20 20 21 21 21 20 15 17 15 11 10 29 26 20 26 30 31 31 32
35 36 36 37 39 40 40 32 34 36 35 24 25 25 26 27 30 30 30 28 28 29 25 25 21 19 21 20 18 23 19 22 19 21 20 29 31 29 31 32 31 31 32 33
35 35 36 37 38 39 40 33 33 37 34 24 22 22 24 27 30 33 28 28 28 28 32 27 23 20 23 18 21 22 23 25 23 25 27 29 31 33 33 34 33 34 34 29
35 35 35 38 38 39 40 33 33 35 35 26 20 24 23 25 28 29 32 31 27 28 29 25 20 20 23 22 24 23 24 25 24 23 27 29 32 33 35 33 34 29 25 24
35 35 35 38 38 38 38 35 33 33 33 30 27 23 23 23 25 28 27 27 27 28 21 23 27 24 20 20 21 24 27 24 23 23 28 30 30 32 32 31 27 25 26 25
35 35 35 37 38 38 39 32 33 34 36 34 24 22 21 24 23 26 24 26 27 26 22 19 21 22 20 18 19 23 24 26 27 27 28 27 27 28 27 26 26 26 26 26
35 35 35 37 37 37 32 30 29 35 36 35 28 19 18 22 22 22 26 24 27 25 25 18 18 18 20 17 18 21 22 23 23 23 23 23 23 22 25 26 27 27 28 28
35 34 35 36 37 37 38 34 32 35 36 36 27 17 21 19 21 21 24 24 23 22 23 17 13 15 18 10 11 14 15 17 18 17 18 18 20 22 24 25 27 27 27 28
34 33 35 37 36 32 33 33 36 37 35 32 26 15 18 19 23 21 24 25 17 19 18 16 15 13 9 10 12 13 14 15 16 17 17 18 18 18 21 22 25 28 28 28
33 36 31 28 34 32 33 34 27 24 29 35 30 17 17 22 24 22 22 25 20 16 15 20 14 12 12 11 13 13 14 15 14 15 15 16 17 20 20 22 23 26 29 29
34 30 31 34 31 33 32 25 25 28 22 28 25 15 20 20 20 22 22 19 17 12 13 12 13 14 14 12 13 14 15 15 16 17 19 19 18 19 20 22 23 22 27 30
26 34 34 34 32 29 21 19 18 18 16 19 14 14 18 19 20 22 21 15 13 9 15 13 11 18 18 13 14 16 17 18 18 18 18 19 20 22 24 25 26 26 26 31
35 31 29 28 27 18 11 6 10 13 18 15 18 12 18 17 18 19 17 10 9 14 15 13 14 18 13 12 15 17 18 17 18 17 18 20 22 24 24 25 27 29 31 32
30 25 14 20 20 17 14 9 9 15 18 16 24 21 21 20 17 18 11 11 8 6 7 10 17 18 15 17 17 16 16 16 17 19 20 21 23 23 26 27 28 30 33 31
27 26 20 18 18 20 18 19 19 17 19 18 22 22 21 18 17 16 13 8 6 6 3 12 18 19 17 16 17 18 18 18 19 21 22 23 24 25 25 26 29 34 31 28
28 25 21 22 20 21 19 17 17 20 19 18 19 19 17 16 17 15 12 9 6 4 10 18 16 16 16 17 16 16 18 19 19 21 22 23 25 24 24 25 33 30 27 28
26 25 25 25 25 25 25 23 20 22 18 16 16 16 17 18 16 14 13 10 10 17 16 16 16 15 17 17 18 19 18 19 21 23 23 24 24 24 25 28 31 32 30 29

GFSNW_sfc_30mbdewp_342.txt.gz
Dewpoint
40 42 43 44 44 39 32 21 10 19 27 11 15 10 12 14 14 17 17 16 16 23 19 18 17 11 13 17 19 15 21 21 16 15 18 24 31 25 25 16 10 14 16 21
40 41 43 44 44 41 28 18 16 23 20 11 12 13 13 16 17 21 26 24 28 27 21 17 18 13 15 17 20 20 23 18 15 21 23 26 29 28 24 21 21 15 16 20
40 41 43 44 42 44 30 19 9 15 18 18 15 15 16 20 23 25 29 27 29 26 20 17 14 13 16 21 22 27 23 23 19 16 20 26 25 27 27 22 17 19 28 29
40 41 42 43 40 38 28 25 18 17 13 15 17 19 17 21 24 26 29 26 27 26 20 16 14 18 20 20 24 22 26 19 22 25 25 22 23 24 24 24 28 24 26 28
40 40 42 43 41 32 28 20 15 18 18 17 18 21 20 21 23 24 23 23 25 27 26 24 23 25 24 23 24 23 27 21 25 23 20 18 18 20 22 22 24 27 27 26
39 40 41 43 42 35 30 31 29 19 20 19 20 21 22 22 25 24 24 25 25 25 25 27 27 28 29 28 25 25 25 24 22 22 24 16 13 20 23 23 25 25 21 27
39 40 41 43 43 39 34 35 29 19 19 20 21 22 23 23 25 24 23 25 24 26 29 30 23 24 27 27 26 30 25 25 25 20 14 9 21 26 27 25 24 26 27 28
39 40 41 42 43 41 36 38 34 23 19 21 21 23 24 25 26 24 23 26 27 29 24 20 16 17 19 21 20 21 24 27 17 14 14 18 18 23 24 22 22 27 27 29
38 39 40 42 42 42 33 33 38 29 19 19 22 22 24 24 25 24 25 27 30 28 23 19 17 15 19 15 17 20 18 17 15 12 8 8 19 26 27 30 17 28 29 28
37 38 40 41 42 42 34 33 37 31 20 22 23 23 24 26 26 25 26 28 27 29 23 19 19 17 22 16 17 18 18 16 13 12 13 17 25 27 21 12 18 29 30 30
37 38 39 40 42 43 35 32 35 32 24 22 23 24 24 25 27 25 25 24 25 27 22 20 19 20 21 20 22 20 18 15 16 13 11 11 29 27 20 26 30 31 31 31
36 37 39 40 41 42 36 28 34 38 28 23 27 25 26 26 28 29 26 27 26 28 22 22 21 21 20 20 16 23 18 22 19 21 20 29 31 30 32 33 31 27 26 26
36 36 38 39 40 41 39 31 33 34 30 21 22 21 23 26 30 33 25 24 27 24 30 22 21 21 22 19 20 21 22 25 23 24 27 29 31 33 33 32 26 27 26 25
35 36 38 39 40 40 39 30 33 33 34 19 20 26 22 25 29 30 32 30 27 28 26 19 19 18 22 21 22 21 23 22 21 21 26 27 27 32 31 28 27 27 27 26
35 35 37 38 39 40 35 32 33 35 29 22 24 27 23 25 26 25 27 25 25 23 22 23 23 21 19 20 22 22 26 24 21 21 27 28 26 27 27 27 27 28 27 27
35 35 37 38 39 40 31 28 33 34 36 29 16 26 20 23 22 26 24 26 23 23 19 19 20 24 19 16 19 22 24 26 28 24 27 26 25 26 27 27 28 28 28 27
35 35 37 38 37 33 23 16 24 35 37 32 22 15 18 21 24 24 24 26 27 22 20 16 15 15 17 17 16 21 22 22 23 24 25 21 22 23 26 27 28 29 29 29
35 35 36 38 38 37 35 33 35 36 34 34 20 17 16 22 21 19 26 21 21 22 19 17 14 16 16 10 14 18 18 17 18 18 19 19 19 21 23 27 28 28 28 29
34 38 37 31 33 30 32 35 37 37 33 30 25 17 8 23 25 23 24 26 15 23 15 14 14 13 8 12 13 13 15 16 16 17 17 18 19 20 22 23 26 28 29 29
37 33 27 25 31 37 35 28 16 16 29 33 27 24 15 22 25 21 19 25 20 15 15 21 13 11 15 13 13 13 15 16 17 17 16 17 18 20 21 23 25 29 30 30
28 26 29 34 34 33 28 17 11 26 7 25 26 19 17 22 17 21 22 18 20 11 13 10 15 12 13 13 14 15 15 15 18 18 20 19 20 22 24 25 26 26 30 30
29 33 35 32 30 26 9 12 19 21 13 22 14 9 20 18 24 21 19 15 15 10 18 12 10 15 16 14 15 15 16 18 18 18 18 20 23 24 24 24 25 29 31 30
31 29 27 25 24 9 -5 -6 12 13 18 19 17 11 16 17 21 19 17 10 8 17 12 12 13 18 18 15 16 18 19 18 18 17 20 22 23 24 24 24 26 30 32 30
28 17 6 12 15 14 14 13 7 14 19 18 17 17 18 21 16 19 9 10 10 6 7 11 14 18 18 17 19 16 15 16 17 19 20 21 22 24 26 26 27 29 31 29
27 26 18 18 19 21 20 19 20 21 22 23 22 22 20 18 16 17 14 9 6 7 4 10 18 20 18 18 17 16 16 17 19 20 21 22 24 25 25 25 28 33 31 27
29 27 23 22 21 21 23 17 16 23 22 21 22 19 16 17 17 15 12 11 8 6 9 15 21 21 18 18 18 18 19 19 20 20 22 23 24 24 24 27 32 30 27 28
27 25 26 25 24 24 24 21 18 24 18 14 17 15 15 18 15 15 15 11 9 17 19 19 18 17 18 18 18 18 20 20 21 22 23 24 25 26 27 28 30 30 29 30

GFSNW_sfc_30mbdewp_345.txt.gz
Dewpoint
42 43 44 45 45 38 27 16 10 20 24 13 15 12 15 19 16 23 26 25 26 23 22 19 18 16 14 17 20 16 21 22 16 16 19 21 30 27 27 18 19 18 14 25
42 43 44 44 44 34 22 14 14 20 21 13 14 16 19 21 22 24 27 25 26 27 23 18 18 17 18 20 20 21 27 19 14 20 25 27 29 28 26 26 23 22 14 24
42 43 44 44 42 39 24 16 9 15 19 19 18 17 19 21 25 25 28 29 30 27 22 20 16 17 19 24 26 30 29 23 19 15 20 25 21 22 25 26 21 25 23 26
42 43 44 44 40 38 27 22 17 18 16 19 21 20 21 21 22 25 25 25 24 26 22 23 19 24 26 28 30 29 27 19 23 24 21 20 22 21 20 20 22 21 23 26
42 43 44 44 37 35 28 18 16 20 20 20 21 23 21 21 23 25 22 23 24 25 25 25 24 26 25 24 27 26 28 22 25 23 25 18 17 21 19 19 21 21 21 22
42 43 44 43 38 33 30 31 25 21 21 21 21 22 23 22 25 24 24 25 24 23 24 27 28 28 29 29 26 25 25 24 22 18 20 15 12 20 22 21 23 23 18 24
42 43 44 42 40 36 35 34 23 20 19 21 21 24 25 23 24 25 24 25 25 26 29 29 26 26 26 28 22 25 25 25 23 17 16 8 20 27 26 24 24 26 26 27
41 42 43 43 40 37 35 37 27 20 20 21 22 23 24 25 26 23 24 26 27 30 24 19 16 16 16 17 20 19 21 26 10 12 14 19 18 23 23 21 21 27 26 27
41 42 43 43 40 36 33 35 34 23 21 22 22 23 24 24 25 22 24 27 30 26 21 18 16 15 18 15 17 19 19 17 13 10 9 9 19 26 28 29 14 27 27 27
40 41 42 43 42 37 33 34 36 24 21 22 23 22 23 25 26 23 24 26 25 27 21 18 18 17 21 16 16 17 17 16 14 13 14 18 25 27 21 10 17 28 29 28
39 41 42 43 41 39 32 31 35 25 21 21 23 23 23 24 25 23 22 21 23 24 19 19 20 19 20 19 21 20 19 15 16 13 11 11 28 24 19 25 29 28 28 29
38 40 41 42 42 39 32 29 34 37 24 24 29 25 25 26 27 28 24 24 25 26 19 20 21 21 19 19 15 22 17 23 19 21 20 29 31 29 29 29 27 27 26 27
38 39 41 41 41 40 33 30 33 32 23 20 22 23 25 27 30 32 19 22 25 22 27 21 20 18 20 18 19 19 19 23 23 23 25 27 30 30 30 29 28 27 27 27
37 39 40 40 40 36 33 33 34 33 27 18 19 29 23 27 29 29 31 27 26 26 23 19 18 18 21 20 21 20 23 21 20 21 24 25 25 27 27 28 28 26 27 28
36 38 39 40 40 35 33 32 34 35 23 18 20 23 23 25 26 24 25 22 21 20 19 22 21 20 18 20 21 21 25 23 19 20 26 26 25 27 27 27 28 28 26 28
35 37 39 40 40 35 26 15 26 35 35 22 14 25 21 22 24 25 24 26 22 21 19 18 19 24 18 16 17 21 23 26 27 22 26 24 23 25 27 27 28 29 27 28
35 37 38 38 34 27 15 9 24 35 36 26 18 13 19 23 23 24 24 25 26 19 17 14 14 15 17 17 14 18 22 22 22 25 25 19 22 22 26 28 29 29 29 28
35 37 39 39 38 37 27 30 37 36 34 30 17 14 15 23 20 18 26 19 19 21 18 18 14 15 15 11 14 16 17 18 18 18 19 19 20 21 23 27 29 28 28 27
38 38 34 29 32 31 30 37 35 35 29 24 21 16 8 23 24 23 24 25 15 23 15 14 15 12 7 11 12 14 15 16 16 17 18 19 20 21 23 24 27 28 28 27
36 30 22 22 29 37 35 23 14 16 26 32 23 22 13 22 24 21 16 22 20 14 16 21 14 10 15 15 13 14 15 17 17 16 16 17 19 22 24 25 26 30 29 27
26 24 29 33 35 31 24 3 4 21 -1 23 26 21 15 22 18 20 22 18 19 10 14 12 13 12 13 13 13 15 15 16 18 19 19 19 22 23 23 24 27 29 30 28
31 32 34 31 28 20 -4 6 19 21 3 20 15 13 19 19 25 21 19 15 15 10 19 12 9 11 18 14 14 16 16 18 17 17 19 21 22 24 24 24 26 29 30 29
29 29 26 21 21 1 -18 -17 12 12 18 20 16 14 16 17 21 19 16 9 8 16 11 10 12 15 19 16 15 16 18 19 19 18 20 21 23 25 25 25 27 30 31 29
21 11 -1 6 10 9 5 3 4 14 19 19 16 18 18 21 15 18 10 11 12 5 7 9 14 15 18 17 18 18 18 16 16 18 20 21 22 24 25 25 26 28 31 28
27 25 12 14 17 20 18 19 19 20 22 20 20 21 20 18 16 17 14 9 5 7 4 9 13 17 19 19 19 18 16 16 16 19 21 21 23 25 24 25 30 32 30 28
29 28 23 23 21 20 22 17 18 24 23 23 21 19 17 17 17 15 12 10 6 3 9 11 19 21 19 18 19 18 18 18 19 20 21 22 23 24 25 30 31 30 27 28
27 26 27 23 23 21 24 20 18 24 19 14 19 15 14 19 16 15 16 12 10 11 17 19 21 20 20 19 19 20 20 20 20 20 22 23 25 26 27 26 29 29 28 29

GFSNW_sfc_30mbdewp_351.txt.gz
Dewpoint
45 45 46 45 45 33 21 17 7 22 26 16 18 18 19 23 22 26 27 25 25 24 24 20 18 17 20 23 27 23 27 23 17 21 22 24 20 15 9 9 12 13 17 21
45 46 46 44 39 29 19 13 14 22 23 14 18 19 21 23 23 24 24 24 28 28 24 21 20 22 24 28 28 26 27 20 13 15 13 22 23 26 29 24 17 12 15 22
45 46 45 42 36 30 20 15 6 18 23 22 18 19 21 20 24 24 24 25 28 25 24 26 22 25 27 28 29 29 28 18 16 13 17 20 17 20 20 23 16 18 17 17
45 45 44 42 37 32 22 20 18 19 18 20 23 22 22 21 20 24 24 23 23 24 22 22 19 23 24 25 27 28 26 21 22 22 23 21 20 18 18 17 18 13 17 18
45 45 44 40 37 32 23 18 19 23 22 22 21 23 21 21 22 23 21 22 23 25 23 24 23 26 24 24 25 25 28 22 25 20 22 15 16 20 16 16 18 16 16 15
44 44 43 41 36 27 24 26 25 24 23 23 22 23 23 22 24 24 25 24 24 24 24 27 27 28 30 27 24 24 26 24 23 13 17 9 9 19 21 18 20 20 15 21
44 43 41 41 38 30 27 25 25 23 21 22 22 22 24 23 24 23 24 25 25 25 29 29 28 27 26 22 21 26 25 24 18 14 14 7 18 25 25 22 19 22 23 24
43 43 41 39 36 35 32 31 24 24 21 22 21 22 22 24 25 25 24 24 26 29 24 18 15 16 16 19 19 20 21 19 13 12 12 17 14 21 21 20 16 24 24 24
43 41 41 40 38 36 33 32 29 26 22 20 22 21 23 22 23 21 21 25 28 24 21 19 15 14 16 15 19 19 18 18 17 10 6 7 17 23 20 28 10 23 26 25
42 41 40 39 37 36 33 33 31 26 23 22 23 22 22 24 25 23 23 23 23 24 20 19 17 15 19 14 15 17 18 17 13 10 9 12 20 23 13 7 10 26 27 27
41 41 39 38 37 35 33 33 34 26 24 23 24 24 24 25 26 21 23 19 21 21 19 19 19 17 18 18 18 18 16 14 14 9 6 5 23 21 17 24 27 25 26 27
41 41 39 37 35 35 32 28 34 32 25 23 28 26 26 27 28 28 22 22 24 23 21 21 20 17 17 15 13 21 14 21 14 17 15 25 28 28 29 28 26 25 25 26
41 40 39 38 38 35 32 32 33 27 24 23 22 22 26 28 30 33 18 23 25 22 24 22 21 19 20 15 18 15 20 23 20 18 23 25 27 28 28 27 27 26 26 26
40 40 40 40 39 38 34 33 34 26 25 21 20 25 24 27 28 25 27 25 25 25 24 22 21 18 21 19 21 20 22 21 19 20 22 24 24 27 28 28 26 26 25 26
40 40 39 39 35 34 33 34 35 33 23 20 19 23 24 26 26 24 22 20 19 19 18 20 20 22 19 20 20 19 23 22 17 17 24 26 24 25 28 28 28 26 26 25
39 38 40 40 36 28 22 19 28 36 32 19 16 23 21 24 25 24 22 23 19 19 20 18 19 23 20 17 14 19 22 24 27 22 26 25 23 24 26 28 29 27 26 27
40 38 38 36 31 29 14 19 29 38 33 19 15 15 21 24 23 25 25 23 23 18 17 16 15 16 20 18 13 18 19 19 20 22 22 18 21 22 25 28 29 29 27 27
40 40 39 37 35 31 23 34 35 34 28 24 13 15 18 24 19 18 26 23 21 23 19 18 14 15 16 12 14 15 17 18 18 19 20 21 21 24 25 26 29 29 27 26
40 35 31 28 27 19 27 34 29 31 23 17 17 11 4 23 24 22 21 24 17 23 18 18 16 12 3 11 13 14 16 16 16 18 19 19 21 23 24 26 27 29 28 27
34 25 13 10 31 36 30 14 7 8 19 29 17 20 15 23 23 20 15 22 18 13 18 21 18 14 14 13 15 16 17 18 18 17 16 18 20 22 24 25 27 29 29 28
19 24 25 31 35 25 12 -3 1 12 1 24 23 19 15 23 20 16 22 19 18 10 16 14 13 10 14 14 15 16 18 18 19 19 20 20 22 24 25 25 27 29 30 28
23 31 32 30 24 9 -13 -6 14 13 -10 21 19 19 18 21 25 22 20 15 16 8 19 14 7 11 17 15 15 16 17 18 19 19 19 22 22 25 26 26 26 28 31 29
30 25 21 15 16 -14 -27 -31 1 8 17 21 19 17 17 20 22 20 16 10 6 16 11 8 9 14 16 17 15 16 18 19 19 20 20 22 22 25 26 25 26 28 31 30
13 8 -11 -3 -1 2 -5 -6 1 14 20 19 19 19 20 20 15 18 7 12 13 7 4 1 13 14 17 20 18 16 16 19 19 19 19 20 22 23 25 26 28 28 30 30
19 16 2 3 11 17 16 15 18 19 22 21 20 20 20 19 17 18 14 10 6 7 0 7 13 15 17 19 19 18 17 19 20 19 19 20 22 23 25 26 30 31 31 29
27 25 20 23 19 18 21 20 18 23 21 22 21 18 15 13 16 14 8 6 1 1 9 14 16 16 18 20 20 19 20 20 19 18 19 20 22 23 25 26 30 29 30 28
26 25 27 23 23 20 20 20 19 25 21 16 19 13 11 20 16 14 15 10 9 13 12 15 15 17 19 21 21 21 20 20 20 20 21 22 23 25 26 25 27 29 30 27